| time (UTC) | temp F | wind direction | speed knots | gust knots | rain 1hr in | rain 24hr in | rain mn in | humidity % | barometer mb |
| 20260505201002 | 41 | 68 | 1.7 | 8.7 | 0.00 | 0.25 | 0.06 | 76 | 1009.3 |
| 20260505200502 | 42 | 340 | 4.3 | 9.6 | 0.00 | 0.25 | 0.06 | 78 | 1009.3 |
| 20260505200004 | 41 | 89 | 7.0 | 9.6 | 0.00 | 0.25 | 0.06 | 81 | 1009.3 |
| 20260505195507 | 41 | 90 | 4.3 | 7.0 | 0.00 | 0.25 | 0.06 | 79 | 1009.4 |
| 20260505195003 | 40 | 99 | 4.3 | 8.7 | 0.00 | 0.25 | 0.06 | 82 | 1009.4 |
| 20260505194506 | 39 | 86 | 5.2 | 8.7 | 0.00 | 0.25 | 0.06 | 86 | 1009.4 |
| 20260505194006 | 39 | 71 | 0.0 | 5.2 | 0.00 | 0.25 | 0.06 | 84 | 1009.6 |
| 20260505193503 | 39 | 63 | 0.9 | 5.2 | 0.00 | 0.25 | 0.06 | 84 | 1009.7 |
| 20260505193011 | 38 | 61 | 2.6 | 6.1 | 0.00 | 0.25 | 0.06 | 88 | 1009.8 |
| 20260505192504 | 38 | 44 | 2.6 | 12.2 | 0.00 | 0.25 | 0.06 | 85 | 1009.8 |
| 20260505192006 | 38 | 358 | 4.3 | 13.0 | 0.00 | 0.25 | 0.06 | 86 | 1009.9 |
| 20260505191516 | 38 | 301 | 9.6 | 14.8 | 0.00 | 0.25 | 0.06 | 85 | 1010.3 |
| 20260505191009 | 38 | 312 | 7.0 | 15.6 | 0.00 | 0.25 | 0.06 | 85 | 1010.4 |
| 20260505190505 | 39 | 300 | 7.8 | 15.6 | 0.00 | 0.25 | 0.06 | 83 | 1010.6 |
| 20260505190024 | 40 | 343 | 7.8 | 15.6 | 0.00 | 0.25 | 0.06 | 80 | 1010.2 |
| 20260505185506 | 40 | 333 | 9.6 | 15.6 | 0.00 | 0.25 | 0.06 | 79 | 1009.9 |
| 20260505185005 | 41 | 13 | 8.7 | 13.9 | 0.00 | 0.25 | 0.06 | 80 | 1009.7 |
| 20260505184504 | 41 | 345 | 8.7 | 13.9 | 0.00 | 0.25 | 0.06 | 80 | 1009.6 |
| 20260505184005 | 42 | 352 | 7.0 | 17.4 | 0.00 | 0.25 | 0.06 | 80 | 1009.6 |
| 20260505183504 | 42 | 345 | 7.0 | 17.4 | 0.00 | 0.25 | 0.06 | 79 | 1009.5 |
| 20260505183007 | 43 | 11 | 8.7 | 14.8 | 0.00 | 0.25 | 0.06 | 78 | 1009.6 |
| 20260505182503 | 44 | 333 | 7.0 | 11.3 | 0.00 | 0.25 | 0.06 | 76 | 1009.6 |
| 20260505182003 | 45 | 326 | 6.1 | 10.4 | 0.00 | 0.25 | 0.06 | 72 | 1009.3 |
| 20260505181512 | 45 | 347 | 4.3 | 6.1 | 0.00 | 0.25 | 0.06 | 70 | 1009.2 |
| 20260505181004 | 45 | 338 | 1.7 | 5.2 | 0.00 | 0.25 | 0.06 | 71 | 1009.3 |
| 20260505180503 | 45 | 274 | 0.0 | 7.0 | 0.00 | 0.25 | 0.06 | 72 | 1009.4 |
| 20260505180016 | 45 | 37 | 1.7 | 7.8 | 0.00 | 0.25 | 0.06 | 74 | 1009.4 |
| 20260505175506 | 45 | 326 | 5.2 | 7.8 | 0.00 | 0.25 | 0.06 | 74 | 1009.4 |
| 20260505175006 | 45 | 81 | 2.6 | 7.8 | 0.00 | 0.25 | 0.06 | 81 | 1009.5 |
| 20260505174520 | 44 | 41 | 2.6 | 7.8 | 0.00 | 0.25 | 0.06 | 75 | 1009.6 |
| 20260505174006 | 44 | 94 | 2.6 | 8.7 | 0.00 | 0.25 | 0.06 | 79 | 1009.7 |
| 20260505173505 | 43 | 31 | 5.2 | 10.4 | 0.00 | 0.25 | 0.06 | 81 | 1009.8 |
| 20260505173004 | 42 | 77 | 5.2 | 10.4 | 0.00 | 0.25 | 0.06 | 80 | 1010.1 |
| 20260505172503 | 42 | 58 | 6.1 | 11.3 | 0.00 | 0.25 | 0.06 | 80 | 1010.2 |
| 20260505172005 | 42 | 60 | 4.3 | 12.2 | 0.00 | 0.25 | 0.06 | 80 | 1010.3 |
| 20260505171515 | 43 | 341 | 7.0 | 12.2 | 0.00 | 0.25 | 0.06 | 79 | 1010.4 |
| 20260505171004 | 43 | 301 | 5.2 | 7.8 | 0.00 | 0.25 | 0.06 | 79 | 1010.5 |
| 20260505170505 | 43 | 316 | 3.5 | 7.8 | 0.01 | 0.25 | 0.06 | 80 | 1010.5 |
| 20260505170017 | 42 | 342 | 3.5 | 7.0 | 0.01 | 0.25 | 0.06 | 78 | 1010.6 |
| 20260505165505 | 42 | 61 | 0.9 | 4.3 | 0.02 | 0.25 | 0.06 | 81 | 1010.6 |
| 20260505165009 | 42 | 48 | 0.0 | 4.3 | 0.02 | 0.25 | 0.06 | 78 | 1010.7 |
| 20260505164516 | 42 | 353 | 0.9 | 4.3 | 0.02 | 0.25 | 0.06 | 82 | 1010.7 |
| 20260505164005 | 41 | 307 | 1.7 | 5.2 | 0.02 | 0.25 | 0.06 | 77 | 1010.8 |
| 20260505163505 | 41 | 97 | 0.0 | 6.1 | 0.02 | 0.25 | 0.06 | 85 | 1010.5 |
| 20260505163021 | 41 | 94 | 1.7 | 6.1 | 0.02 | 0.25 | 0.06 | 85 | 1010.3 |
| 20260505162506 | 40 | 347 | 2.6 | 6.1 | 0.02 | 0.25 | 0.06 | 83 | 1010.8 |
| 20260505162010 | 40 | 71 | 3.5 | 4.3 | 0.02 | 0.25 | 0.06 | 88 | 1010.6 |
| 20260505161505 | 40 | 114 | 0.9 | 5.2 | 0.02 | 0.25 | 0.06 | 88 | 1010.9 |
| 20260505161003 | 40 | 147 | 0.0 | 9.6 | 0.02 | 0.25 | 0.06 | 89 | 1011.0 |
| 20260505160507 | 40 | 282 | 3.5 | 10.4 | 0.01 | 0.24 | 0.05 | 86 | 1011.0 |
| 20260505153020 | 41 | 346 | 0.0 | 0.0 | 0.00 | 0.23 | 0.04 | 87 | 1010.8 |
| 20260505152507 | 41 | 319 | 0.0 | 0.9 | 0.00 | 0.23 | 0.04 | 87 | 1010.8 |
| 20260505152008 | 41 | 304 | 0.0 | 0.9 | 0.00 | 0.23 | 0.04 | 87 | 1010.8 |
| 20260505151524 | 41 | 314 | 0.0 | 0.0 | 0.00 | 0.23 | 0.04 | 88 | 1010.9 |
| 20260505151006 | 40 | 223 | 0.0 | 0.0 | 0.00 | 0.23 | 0.04 | 89 | 1010.9 |
| 20260505150507 | 40 | 299 | 0.0 | 0.9 | 0.00 | 0.23 | 0.04 | 88 | 1011.0 |
| 20260505140507 | 38 | 311 | 0.9 | 2.6 | 0.00 | 0.23 | 0.04 | 91 | 1011.9 |
| 20260505125008 | 36 | 281 | 0.0 | 0.0 | 0.00 | 0.23 | 0.04 | 92 | 1011.7 |
| 20260505124525 | 36 | 46 | 0.0 | 0.0 | 0.00 | 0.23 | 0.04 | 92 | 1011.7 |
| 20260505124009 | 36 | 46 | 0.0 | 0.0 | 0.00 | 0.23 | 0.04 | 92 | 1011.6 |
| 20260505123509 | 36 | 46 | 0.0 | 0.0 | 0.00 | 0.23 | 0.04 | 92 | 1011.7 |
| 20260505123029 | 36 | 46 | 0.0 | 0.0 | 0.00 | 0.23 | 0.04 | 92 | 1011.7 |
| 20260505122506 | 36 | 44 | 0.0 | 0.0 | 0.00 | 0.23 | 0.04 | 93 | 1011.7 |
| 20260505122016 | 36 | 67 | 0.0 | 0.0 | 0.00 | 0.23 | 0.04 | 93 | 1011.7 |
| 20260505121514 | 36 | 62 | 0.0 | 0.0 | 0.00 | 0.23 | 0.04 | 93 | 1011.6 |
| 20260505121008 | 36 | 79 | 0.0 | 0.9 | 0.00 | 0.23 | 0.04 | 93 | 1011.7 |
| 20260505120508 | 36 | 84 | 0.0 | 2.6 | 0.00 | 0.23 | 0.04 | 93 | 1011.8 |
| 20260505120022 | 36 | 76 | 0.9 | 2.6 | 0.00 | 0.23 | 0.04 | 93 | 1011.7 |
| 20260505115507 | 36 | 39 | 0.0 | 0.0 | 0.00 | 0.23 | 0.04 | 92 | 1011.8 |
| 20260505115010 | 36 | 82 | 0.0 | 0.0 | 0.00 | 0.23 | 0.04 | 92 | 1011.7 |
| 20260505114523 | 36 | 262 | 0.0 | 0.0 | 0.00 | 0.23 | 0.04 | 92 | 1011.8 |
| 20260505114008 | 36 | 262 | 0.0 | 0.0 | 0.00 | 0.23 | 0.04 | 92 | 1011.8 |
| 20260505113507 | 36 | 262 | 0.0 | 0.0 | 0.00 | 0.23 | 0.04 | 92 | 1011.8 |
| 20260505113026 | 36 | 262 | 0.0 | 0.0 | 0.00 | 0.23 | 0.04 | 92 | 1011.9 |
| 20260505112514 | 36 | 262 | 0.0 | 0.0 | 0.00 | 0.23 | 0.04 | 92 | 1011.8 |
| 20260505112011 | 36 | 262 | 0.0 | 0.0 | 0.00 | 0.23 | 0.04 | 92 | 1011.9 |
| 20260505111535 | 36 | 262 | 0.0 | 0.0 | 0.00 | 0.23 | 0.04 | 92 | 1011.9 |
| 20260505111004 | 36 | 262 | 0.0 | 0.0 | 0.00 | 0.23 | 0.04 | 92 | 1011.9 |
| 20260505110503 | 36 | 276 | 0.0 | 0.9 | 0.00 | 0.23 | 0.04 | 92 | 1011.8 |
| 20260505102003 | 37 | 139 | 0.0 | 0.0 | 0.00 | 0.23 | 0.04 | 93 | 1012.0 |
| 20260505101509 | 37 | 124 | 0.0 | 0.0 | 0.00 | 0.23 | 0.04 | 93 | 1012.0 |
| 20260505101003 | 37 | 186 | 0.0 | 0.0 | 0.00 | 0.23 | 0.04 | 92 | 1012.2 |
| 20260505100506 | 37 | 186 | 0.0 | 0.0 | 0.00 | 0.23 | 0.04 | 92 | 1012.4 |
| 20260505100017 | 37 | 187 | 0.0 | 0.0 | 0.00 | 0.23 | 0.04 | 92 | 1012.5 |
| 20260505095503 | 37 | 186 | 0.0 | 1.7 | 0.00 | 0.23 | 0.04 | 92 | 1012.5 |
| 20260505095004 | 37 | 221 | 0.0 | 2.6 | 0.00 | 0.23 | 0.04 | 92 | 1012.4 |
| 20260505094519 | 37 | 162 | 0.0 | 2.6 | 0.00 | 0.23 | 0.04 | 92 | 1012.4 |
| 20260505094008 | 37 | 141 | 0.0 | 1.7 | 0.00 | 0.23 | 0.04 | 93 | 1012.5 |
| 20260505093503 | 37 | 216 | 0.0 | 0.0 | 0.00 | 0.23 | 0.04 | 93 | 1012.5 |
| 20260505093022 | 37 | 226 | 0.0 | 0.0 | 0.00 | 0.23 | 0.04 | 92 | 1012.5 |
| 20260505092507 | 37 | 148 | 0.0 | 0.0 | 0.00 | 0.23 | 0.04 | 92 | 1012.5 |
| 20260505092003 | 37 | 103 | 0.0 | 0.0 | 0.01 | 0.23 | 0.04 | 93 | 1012.6 |
| 20260505091504 | 37 | 336 | 0.0 | 0.0 | 0.01 | 0.23 | 0.04 | 93 | 1012.7 |
| 20260505091002 | 37 | 336 | 0.0 | 0.0 | 0.02 | 0.23 | 0.04 | 93 | 1012.7 |
| 20260505090503 | 37 | 99 | 0.0 | 2.6 | 0.02 | 0.23 | 0.04 | 93 | 1012.8 |
| 20260505090008 | 37 | 99 | 0.0 | 2.6 | 0.03 | 0.23 | 0.04 | 93 | 1013.0 |
| 20260505085503 | 36 | 104 | 0.9 | 3.5 | 0.04 | 0.23 | 0.04 | 93 | 1013.0 |
| 20260505085004 | 36 | 93 | 2.6 | 3.5 | 0.04 | 0.23 | 0.04 | 93 | 1013.0 |
| 20260505084519 | 36 | 87 | 0.0 | 0.0 | 0.04 | 0.23 | 0.04 | 93 | 1013.2 |
| 20260505084003 | 36 | 121 | 0.0 | 0.0 | 0.04 | 0.23 | 0.04 | 93 | 1013.3 |
| 20260505083503 | 36 | 121 | 0.0 | 0.0 | 0.04 | 0.23 | 0.04 | 93 | 1013.3 |
| 20260505083019 | 36 | 127 | 0.0 | 0.0 | 0.04 | 0.23 | 0.04 | 93 | 1013.4 |
| 20260505082507 | 36 | 108 | 0.0 | 0.0 | 0.04 | 0.23 | 0.04 | 93 | 1013.3 |
| 20260505082009 | 36 | 219 | 0.0 | 0.0 | 0.03 | 0.22 | 0.03 | 93 | 1013.6 |
| 20260505081539 | 36 | 219 | 0.0 | 0.0 | 0.03 | 0.22 | 0.03 | 93 | 1013.7 |
| 20260505081008 | 36 | 205 | 0.0 | 0.0 | 0.02 | 0.21 | 0.02 | 93 | 1013.6 |
| 20260505080507 | 36 | 205 | 0.0 | 0.0 | 0.02 | 0.21 | 0.02 | 93 | 1013.7 |
| 20260505080006 | 36 | 193 | 0.0 | 0.0 | 0.01 | 0.20 | 0.01 | 93 | 1013.6 |
| 20260505075504 | 36 | 217 | 0.0 | 0.0 | 0.00 | 0.19 | 0.00 | 93 | 1013.6 |
| 20260505075007 | 36 | 167 | 0.0 | 0.0 | 0.00 | 0.19 | 0.00 | 93 | 1013.5 |
| 20260505074512 | 36 | 154 | 0.0 | 0.0 | 0.00 | 0.19 | 0.00 | 93 | 1013.4 |
| 20260505074004 | 36 | 158 | 0.0 | 0.0 | 0.00 | 0.19 | 0.00 | 93 | 1013.5 |
| 20260505073504 | 36 | 218 | 0.0 | 0.0 | 0.00 | 0.19 | 0.00 | 93 | 1013.7 |
| 20260505073018 | 36 | 214 | 0.0 | 0.0 | 0.00 | 0.19 | 0.00 | 92 | 1013.7 |
| 20260505072505 | 36 | 214 | 0.0 | 0.0 | 0.00 | 0.19 | 0.00 | 92 | 1013.8 |
| 20260505072003 | 36 | 214 | 0.0 | 0.0 | 0.00 | 0.19 | 0.00 | 92 | 1013.8 |
| 20260505071542 | 37 | 213 | 0.0 | 0.0 | 0.00 | 0.19 | 0.00 | 92 | 1013.8 |
| 20260505071006 | 37 | 212 | 0.0 | 0.0 | 0.00 | 0.19 | 0.00 | 92 | 1013.8 |
| 20260505070505 | 37 | 246 | 0.0 | 0.0 | 0.00 | 0.19 | 0.00 | 92 | 1013.9 |
| 20260505070025 | 37 | 243 | 0.0 | 0.0 | 0.00 | 0.19 | 0.00 | 92 | 1014.0 |
| 20260505065507 | 37 | 151 | 0.0 | 0.0 | 0.00 | 0.19 | 0.00 | 92 | 1013.9 |
| 20260505065006 | 37 | 174 | 0.0 | 0.0 | 0.00 | 0.19 | 0.00 | 93 | 1014.0 |
| 20260505064527 | 37 | 113 | 0.0 | 0.0 | 0.00 | 0.19 | 0.00 | 92 | 1014.0 |
| 20260505064007 | 37 | 113 | 0.0 | 0.0 | 0.00 | 0.19 | 0.00 | 92 | 1013.9 |
| 20260505063504 | 37 | 258 | 0.0 | 0.0 | 0.00 | 0.19 | 0.00 | 92 | 1014.0 |
| 20260505063014 | 37 | 258 | 0.0 | 0.0 | 0.00 | 0.19 | 0.00 | 92 | 1014.1 |
| 20260505062504 | 37 | 245 | 0.0 | 0.0 | 0.00 | 0.19 | 0.00 | 92 | 1014.1 |
| 20260505062005 | 37 | 111 | 0.0 | 0.0 | 0.00 | 0.19 | 0.00 | 92 | 1014.1 |
| 20260505061518 | 37 | 103 | 0.0 | 0.0 | 0.00 | 0.19 | 0.00 | 91 | 1014.0 |
| 20260505061003 | 37 | 173 | 0.0 | 0.0 | 0.00 | 0.19 | 0.00 | 92 | 1013.9 |
| 20260505060509 | 37 | 174 | 0.0 | 0.0 | 0.00 | 0.19 | 0.00 | 92 | 1013.9 |
| 20260505060020 | 37 | 264 | 0.0 | 0.0 | 0.00 | 0.19 | 0.00 | 91 | 1014.0 |
| 20260505055510 | 37 | 271 | 0.0 | 0.0 | 0.00 | 0.19 | 0.19 | 91 | 1014.0 |
| 20260505055011 | 37 | 271 | 0.0 | 0.0 | 0.00 | 0.19 | 0.19 | 91 | 1014.0 |
| 20260505054532 | 37 | 271 | 0.0 | 0.0 | 0.00 | 0.19 | 0.19 | 91 | 1014.1 |
| 20260505054011 | 37 | 271 | 0.0 | 0.0 | 0.00 | 0.19 | 0.19 | 91 | 1014.2 |
| 20260505053510 | 37 | 271 | 0.0 | 0.0 | 0.00 | 0.19 | 0.19 | 91 | 1014.1 |
| 20260505053037 | 37 | 271 | 0.0 | 0.0 | 0.00 | 0.19 | 0.19 | 91 | 1014.1 |
| 20260505052511 | 37 | 271 | 0.0 | 0.0 | 0.00 | 0.19 | 0.19 | 90 | 1014.2 |
| 20260505052008 | 37 | 271 | 0.0 | 0.0 | 0.00 | 0.19 | 0.19 | 90 | 1014.3 |
| 20260505051523 | 37 | 271 | 0.0 | 0.0 | 0.00 | 0.19 | 0.19 | 90 | 1014.3 |
| 20260505051011 | 37 | 282 | 0.0 | 0.0 | 0.00 | 0.19 | 0.19 | 90 | 1014.3 |
| 20260505050505 | 37 | 288 | 0.0 | 0.0 | 0.00 | 0.19 | 0.19 | 90 | 1014.4 |
| 20260505041527 | 38 | 261 | 0.0 | 2.6 | 0.00 | 0.19 | 0.19 | 88 | 1014.3 |
| 20260505041008 | 38 | 148 | 0.0 | 4.3 | 0.00 | 0.19 | 0.19 | 89 | 1014.4 |
| 20260505040509 | 38 | 135 | 0.9 | 7.0 | 0.00 | 0.19 | 0.19 | 88 | 1014.3 |
| 20260505040036 | 38 | 96 | 3.5 | 7.0 | 0.00 | 0.19 | 0.19 | 88 | 1014.3 |
| 20260505035502 | 38 | 64 | 4.3 | 6.1 | 0.00 | 0.19 | 0.19 | 88 | 1014.3 |
| 20260505035002 | 38 | 96 | 3.5 | 7.8 | 0.00 | 0.19 | 0.19 | 88 | 1014.3 |
| 20260505034509 | 38 | 78 | 3.5 | 10.4 | 0.00 | 0.19 | 0.19 | 88 | 1014.2 |
| 20260505034003 | 38 | 124 | 7.8 | 10.4 | 0.00 | 0.19 | 0.19 | 87 | 1014.1 |
| 20260505033503 | 38 | 120 | 7.0 | 9.6 | 0.00 | 0.19 | 0.19 | 87 | 1014.1 |
| 20260505033011 | 38 | 91 | 6.1 | 11.3 | 0.00 | 0.19 | 0.19 | 88 | 1014.1 |
| 20260505032504 | 38 | 97 | 7.0 | 11.3 | 0.00 | 0.19 | 0.19 | 88 | 1014.1 |
| 20260505032006 | 38 | 72 | 7.0 | 10.4 | 0.00 | 0.19 | 0.19 | 88 | 1014.2 |
| 20260505031508 | 38 | 97 | 5.2 | 7.8 | 0.00 | 0.19 | 0.19 | 89 | 1014.0 |
| 20260505031005 | 38 | 98 | 1.7 | 3.5 | 0.00 | 0.19 | 0.19 | 89 | 1014.0 |
| 20260505030503 | 38 | 117 | 0.0 | 1.7 | 0.00 | 0.19 | 0.19 | 90 | 1013.9 |
| 20260505030023 | 38 | 161 | 0.9 | 1.7 | 0.00 | 0.19 | 0.19 | 90 | 1013.9 |
| 20260505025507 | 38 | 191 | 0.0 | 2.6 | 0.01 | 0.19 | 0.19 | 90 | 1013.8 |
| 20260505025004 | 38 | 217 | 0.9 | 2.6 | 0.01 | 0.19 | 0.19 | 90 | 1013.9 |
| 20260505024508 | 38 | 205 | 0.0 | 5.2 | 0.01 | 0.19 | 0.19 | 90 | 1013.8 |
| 20260505024003 | 38 | 197 | 0.0 | 5.2 | 0.01 | 0.19 | 0.19 | 90 | 1013.7 |
| 20260505023503 | 38 | 211 | 2.6 | 6.1 | 0.01 | 0.19 | 0.19 | 90 | 1013.8 |
| 20260505023015 | 38 | 213 | 1.7 | 6.1 | 0.01 | 0.19 | 0.19 | 90 | 1013.6 |
| 20260505022503 | 38 | 216 | 2.6 | 5.2 | 0.01 | 0.19 | 0.19 | 90 | 1013.7 |
| 20260505022004 | 38 | 229 | 1.7 | 5.2 | 0.01 | 0.19 | 0.19 | 90 | 1013.8 |
| 20260505021512 | 38 | 239 | 2.6 | 4.3 | 0.02 | 0.19 | 0.19 | 90 | 1013.8 |
| 20260505021002 | 38 | 229 | 2.6 | 4.3 | 0.04 | 0.19 | 0.19 | 89 | 1013.7 |
| 20260505020504 | 38 | 188 | 1.7 | 9.6 | 0.06 | 0.19 | 0.19 | 89 | 1013.6 |
| 20260505020012 | 38 | 181 | 1.7 | 10.4 | 0.08 | 0.19 | 0.19 | 88 | 1013.6 |
| 20260505015504 | 38 | 101 | 7.8 | 10.4 | 0.08 | 0.18 | 0.18 | 88 | 1013.5 |
| 20260505015005 | 38 | 101 | 7.0 | 9.6 | 0.10 | 0.18 | 0.18 | 88 | 1013.5 |
| 20260505014514 | 38 | 99 | 3.5 | 5.2 | 0.14 | 0.18 | 0.18 | 87 | 1013.9 |
| 20260505014003 | 38 | 78 | 3.5 | 5.2 | 0.16 | 0.18 | 0.18 | 87 | 1014.0 |
| 20260505013503 | 38 | 51 | 0.9 | 2.6 | 0.17 | 0.18 | 0.18 | 87 | 1014.0 |
| 20260505013013 | 38 | 68 | 1.7 | 3.5 | 0.18 | 0.18 | 0.18 | 87 | 1014.1 |
| 20260505012504 | 38 | 43 | 0.9 | 3.5 | 0.18 | 0.18 | 0.18 | 88 | 1014.2 |
| 20260505012003 | 38 | 337 | 1.7 | 8.7 | 0.18 | 0.18 | 0.18 | 88 | 1014.2 |
| 20260505011515 | 39 | 358 | 1.7 | 10.4 | 0.17 | 0.17 | 0.17 | 88 | 1014.1 |
| 20260505011008 | 39 | 335 | 7.8 | 12.2 | 0.15 | 0.15 | 0.15 | 88 | 1014.0 |
| 20260505010503 | 39 | 335 | 6.1 | 13.9 | 0.13 | 0.13 | 0.13 | 88 | 1013.8 |
| 20260505010012 | 39 | 333 | 8.7 | 13.9 | 0.11 | 0.11 | 0.11 | 87 | 1013.4 |
| 20260505005503 | 39 | 313 | 7.0 | 13.9 | 0.10 | 0.10 | 0.10 | 86 | 1013.3 |
| 20260505005004 | 40 | 333 | 8.7 | 14.8 | 0.08 | 0.08 | 0.08 | 83 | 1013.2 |
| 20260505004514 | 42 | 332 | 9.6 | 14.8 | 0.04 | 0.04 | 0.04 | 79 | 1013.2 |
| 20260505004004 | 45 | 337 | 8.7 | 14.8 | 0.02 | 0.02 | 0.02 | 71 | 1013.0 |
| 20260505003508 | 46 | 342 | 0.0 | 2.6 | 0.01 | 0.01 | 0.01 | 68 | 1012.7 |
| 20260505003011 | 46 | 96 | 0.9 | 6.1 | 0.00 | 0.00 | 0.00 | 65 | 1012.5 |
| 20260505002504 | 47 | 114 | 2.6 | 7.8 | 0.00 | 0.00 | 0.00 | 64 | 1012.5 |
| 20260505002004 | 47 | 89 | 4.3 | 7.8 | 0.00 | 0.00 | 0.00 | 64 | 1012.5 |
| 20260505001512 | 47 | 92 | 4.3 | 8.7 | 0.00 | 0.00 | 0.00 | 64 | 1012.7 |
| 20260505001007 | 47 | 102 | 2.6 | 12.2 | 0.00 | 0.00 | 0.00 | 65 | 1012.7 |
| 20260505000505 | 47 | 139 | 7.0 | 14.8 | 0.00 | 0.00 | 0.00 | 65 | 1012.7 |
| 20260505000018 | 47 | 104 | 9.6 | 14.8 | 0.00 | 0.00 | 0.00 | 63 | 1012.8 |
| 20260504235505 | 48 | 117 | 6.1 | 9.6 | 0.00 | 0.00 | 0.00 | 62 | 1012.8 |
| 20260504235003 | 48 | 104 | 6.1 | 9.6 | 0.00 | 0.00 | 0.00 | 61 | 1012.8 |
| 20260504234514 | 48 | 124 | 5.2 | 10.4 | 0.00 | 0.00 | 0.00 | 62 | 1012.8 |
| 20260504234003 | 49 | 123 | 7.0 | 10.4 | 0.00 | 0.00 | 0.00 | 60 | 1012.7 |
| 20260504233503 | 50 | 128 | 4.3 | 11.3 | 0.00 | 0.00 | 0.00 | 59 | 1012.7 |
| 20260504233016 | 50 | 150 | 7.0 | 13.0 | 0.00 | 0.00 | 0.00 | 61 | 1012.5 |
| 20260504232504 | 50 | 174 | 5.2 | 13.0 | 0.00 | 0.00 | 0.00 | 62 | 1012.6 |
| 20260504232006 | 49 | 126 | 7.0 | 11.3 | 0.00 | 0.00 | 0.00 | 61 | 1012.7 |
| 20260504231515 | 48 | 103 | 7.0 | 11.3 | 0.00 | 0.00 | 0.00 | 66 | 1012.7 |
| 20260504231008 | 47 | 137 | 2.6 | 7.0 | 0.00 | 0.00 | 0.00 | 68 | 1012.7 |
| 20260504230507 | 45 | 121 | 1.7 | 5.2 | 0.00 | 0.00 | 0.00 | 75 | 1013.0 |
| 20260504230016 | 45 | 211 | 2.6 | 13.0 | 0.00 | 0.00 | 0.00 | 74 | 1013.2 |
| 20260504225505 | 45 | 208 | 6.1 | 15.6 | 0.00 | 0.00 | 0.00 | 73 | 1013.3 |
| 20260504225006 | 47 | 243 | 11.3 | 17.4 | 0.00 | 0.00 | 0.00 | 65 | 1013.4 |
| 20260504224516 | 48 | 259 | 13.9 | 17.4 | 0.00 | 0.00 | 0.00 | 61 | 1013.4 |
| 20260504224003 | 49 | 251 | 5.2 | 8.7 | 0.00 | 0.00 | 0.00 | 58 | 1013.2 |
| 20260504223507 | 50 | 252 | 6.1 | 9.6 | 0.00 | 0.00 | 0.00 | 55 | 1013.2 |
| 20260504223015 | 50 | 243 | 7.0 | 9.6 | 0.00 | 0.00 | 0.00 | 53 | 1013.2 |
| 20260504222505 | 51 | 245 | 5.2 | 7.8 | 0.00 | 0.00 | 0.00 | 51 | 1013.2 |
| 20260504222006 | 52 | 136 | 3.5 | 7.0 | 0.00 | 0.00 | 0.00 | 54 | 1013.1 |
| 20260504221522 | 50 | 234 | 3.5 | 11.3 | 0.00 | 0.00 | 0.00 | 60 | 1013.2 |
| 20260504221006 | 48 | 233 | 6.1 | 13.0 | 0.00 | 0.00 | 0.00 | 62 | 1013.4 |
| 20260504220506 | 47 | 231 | 8.7 | 13.0 | 0.00 | 0.00 | 0.00 | 64 | 1013.5 |
| 20260504220023 | 46 | 212 | 9.6 | 16.5 | 0.00 | 0.00 | 0.00 | 64 | 1013.4 |
| 20260504215504 | 46 | 223 | 10.4 | 17.4 | 0.00 | 0.00 | 0.00 | 65 | 1013.4 |
| 20260504215007 | 46 | 214 | 9.6 | 21.7 | 0.00 | 0.00 | 0.00 | 69 | 1013.4 |
| 20260504214519 | 45 | 224 | 14.8 | 21.7 | 0.00 | 0.00 | 0.00 | 67 | 1013.4 |
| 20260504214008 | 46 | 260 | 15.6 | 20.0 | 0.00 | 0.00 | 0.00 | 66 | 1013.3 |
| 20260504213507 | 46 | 259 | 13.9 | 20.0 | 0.00 | 0.00 | 0.00 | 63 | 1013.5 |
| 20260504213018 | 47 | 224 | 12.2 | 19.1 | 0.00 | 0.00 | 0.00 | 63 | 1013.8 |
| 20260504212504 | 48 | 264 | 13.9 | 20.9 | 0.00 | 0.00 | 0.00 | 60 | 1013.8 |
| 20260504212003 | 48 | 233 | 14.8 | 20.9 | 0.00 | 0.00 | 0.00 | 57 | 1013.7 |
| 20260504211519 | 48 | 248 | 16.5 | 24.3 | 0.00 | 0.00 | 0.00 | 55 | 1013.5 |
| 20260504211003 | 49 | 245 | 14.8 | 26.1 | 0.00 | 0.00 | 0.00 | 54 | 1013.5 |
| 20260504210506 | 50 | 277 | 19.1 | 26.1 | 0.00 | 0.00 | 0.00 | 52 | 1013.2 |
| 20260504210011 | 52 | 268 | 13.9 | 27.8 | 0.00 | 0.00 | 0.00 | 48 | 1013.1 |
| 20260504205505 | 55 | 272 | 15.6 | 27.8 | 0.00 | 0.00 | 0.00 | 42 | 1013.0 |
| 20260504205005 | 57 | 301 | 11.3 | 15.6 | 0.00 | 0.00 | 0.00 | 32 | 1012.5 |
| 20260504204516 | 58 | 290 | 7.8 | 9.6 | 0.00 | 0.00 | 0.00 | 30 | 1012.3 |
| 20260504204007 | 58 | 256 | 4.3 | 9.6 | 0.00 | 0.00 | 0.00 | 28 | 1012.3 |
| 20260504203507 | 59 | 280 | 2.6 | 8.7 | 0.00 | 0.00 | 0.00 | 28 | 1012.2 |
| 20260504203021 | 60 | 94 | 3.5 | 18.2 | 0.00 | 0.00 | 0.00 | 30 | 1012.3 |
| 20260504202508 | 60 | 291 | 7.0 | 18.2 | 0.00 | 0.00 | 0.00 | 28 | 1012.3 |
| 20260504202007 | 61 | 297 | 9.6 | 18.2 | 0.00 | 0.00 | 0.00 | 30 | 1012.2 |
| 20260504201506 | 60 | 98 | 0.9 | 9.6 | 0.00 | 0.00 | 0.00 | 31 | 1012.5 |